Flag for U.S.A. Weather past 2 weeks in Independence, Missouri, U.S.A.

Now
64 °F

Sunny.


Feels Like: 64 °F
Forecast: 48 / 73 °F
Wind: 3 mph from Southeast

Location: Lee's Summit Municipal Airport


UV Index: 5 (Moderate)

Visibility: 10 mi


Pressure: 30.16 "Hg

Humidity: 43%

Dew point: 41 °F

Location of IndependenceLocation

Historic Weather in Independence

°F

Independence temperature yesterday

Maximum temperature yesterday: 51 °F (at 12:01 AM)
Minimum temperature yesterday: 39 °F (at 5:53 AM)
Average temperature yesterday: 42 °F

Past Weeks' High & Low Weather Summary

 TemperatureHumidityPressure
High82 °F (Apr 12, 3:53 PM)93% (Apr 13, 5:53 PM)30.34 "Hg (Apr 13, 5:53 PM)
Low29 °F (Apr 15, 6:53 AM)20% (Apr 11, 2:53 PM)29.42 "Hg (Apr 13, 3:53 PM)
Average52 °F54%29.97 "Hg
* Reported Apr 3 6:53 PM — Apr 18 6:53 PM, Independence, Weather by CustomWeather, © 2014

Note: Actual official high and low records may vary slightly from our data, if they occured in-between our weather recording intervals... More about our weather records

Advertising

Historic Weather Conditions — Data for Previous 24 hours

 ConditionsComfort  
Time TempWeatherWind HumidityBarometerVisibility
6:53 PM
Apr 18
66 °FSunny.8 mph40%30.17 "Hg10 mi
5:53 PM67 °FSunny.6 mph41%30.18 "Hg10 mi
4:53 PM67 °FSunny.7 mph37%30.19 "Hg10 mi
3:53 PM67 °FSunny.10 mph39%30.22 "Hg10 mi
2:53 PM65 °FSunny.N/A44%30.25 "Hg10 mi
1:53 PM64 °FSunny.5 mph43%30.28 "Hg10 mi
12:53 PM61 °FSunny.5 mph46%30.29 "Hg10 mi
11:53 AM58 °FSunny.7 mph51%30.32 "Hg10 mi
10:53 AM54 °FSunny.3 mph57%30.33 "Hg10 mi
9:53 AM50 °FSunny.3 mph63%30.33 "Hg10 mi
8:53 AM45 °FSunny.5 mph74%30.33 "Hg10 mi
7:53 AM40 °FFog.3 mph86%30.34 "Hg5 mi
6:53 AM36 °FFog.No wind85%30.32 "Hg5 mi
5:53 AM38 °FClear.No wind83%30.30 "Hg9 mi
4:53 AM39 °FClear.3 mph82%30.30 "Hg8 mi
3:53 AM38 °FClear.No wind83%30.30 "Hg7 mi
2:53 AM38 °FClear.No wind83%30.29 "Hg7 mi
1:53 AM39 °FClear.No wind79%30.30 "Hg9 mi
12:53 AM41 °FClear.No wind74%30.30 "Hg8 mi
11:53 PM
Apr 17
39 °FClear.No wind79%30.29 "Hg9 mi
10:53 PM43 °FOvercast.No wind71%30.29 "Hg10 mi
9:53 PM43 °FOvercast.No wind71%30.31 "Hg10 mi
8:53 PM43 °FSunny.3 mph71%30.31 "Hg10 mi
Weather by CustomWeather, © 2014

See weather overview